Location: Grand Mesa Observatory
(38.9638°N, 108.2379°W)
Time: 04:19:25
(UTC-07:00)

Tiangong 2 - Visible Passes

Search period start: 19 December 2018 00:00
Search period end: 29 December 2018 00:00
Orbit: 383 x 391 km, 42.8° (Epoch: 19 December)

Date Brightness Start Highest point End Pass type
(mag) Time Alt. Az. Time Alt. Az. Time Alt. Az.
19 Dec 3.3 17:35:17 10° S 17:37:16 16° SE 17:39:16 10° ESE visible
19 Dec 3.6 19:10:34 10° WSW 19:11:52 22° WSW 19:11:52 22° WSW visible
20 Dec 1.5 18:11:54 10° SW 18:14:58 50° SSE 18:15:55 35° E visible
21 Dec 2.1 18:49:48 10° W 18:52:11 44° WNW 18:52:11 44° WNW visible
22 Dec 1.0 17:50:55 10° WSW 17:54:05 88° SSE 17:56:09 20° ENE visible
22 Dec 4.4 19:28:04 10° WNW 19:28:25 12° WNW 19:28:25 12° WNW visible
23 Dec 1.6 18:29:05 10° W 18:32:09 45° N 18:32:21 44° N visible
24 Dec 1.3 17:30:07 10° W 17:33:15 60° NNW 17:36:17 11° ENE visible
24 Dec 3.5 19:07:20 10° WNW 19:08:33 20° WNW 19:08:33 20° WNW visible
25 Dec 1.8 18:08:22 10° WNW 18:11:22 39° N 18:12:29 28° NE visible
26 Dec 2.3 18:46:29 10° WNW 18:48:43 34° NW 18:48:43 34° NW visible
27 Dec 1.8 17:47:35 10° WNW 17:50:35 39° N 17:52:44 16° ENE visible
27 Dec 4.2 19:24:25 10° WNW 19:25:00 14° WNW 19:25:00 14° WNW visible
28 Dec 1.1 18:25:34 10° WNW 18:28:42 57° NNE 18:29:05 52° NE visible
